Forside
METAR-TAF:

METAR-TAF

Lufthavne :

Burlington Municipal Airport

Burlington, Wisconsin, USA

Breddekreds: 42-41-26N, længdekreds: 088-18-17W, højde: 237 m

Aktuelle vejr

Denne rapport blev lavet for 16 minutter siden, kl. 06:35 UTC
Vind 8 kt fra sydvest
Temperatur 5°C
Fugtighed 70%
Tryk 1015 hPa
Sigt: 16.1 km
skyfri

METAR: KBUU 290635Z AUTO 23008KT 10SM CLR 05/00 A2996 RMK AO2 T00480003 PWINO

Tid: 00:51 (06:51 UTC)


TAF: fraværende

Vejrobservationer og prognoser fra mere end 4000 lufthavne (METAR og TAF).

De gule og røde prikker repræsenterer de meteorologiske stationer.

Flyt musen over at se navnet på stationen.

Så klik over at se vejr observationer og prognoser.

At skifte det kort: Klik på de grønne knapper med et sort kors for at zoome ind; på den grønne knap med en bindestreg for at zoome ud; eller på de grønne pile for tilstødende kort.


METAR-TAF: